#timestamp,LO_Frequency,Hit,StdDev 
1552071615.8,286046999.3,N
1552071635.6,286046996.8,N
1552071655.4,286046997.6,N
1552071675.3,286046996.7,N
1552071695.1,286046997.9,N
1552071715.9,286046997.4,N
1552071735.7,286046997.6,N
1552071755.5,286046996.1,N
1552071775.4,286046998.0,N
1552071795.2,286046997.4,N
1552071815.0,286046999.5,N
1552071815.9,286046999.5,N
1552071835.8,286046996.6,N
1552071855.6,286046997.3,N
1552071875.5,286046998.0,N
1552071895.3,286046997.1,N
1552071915.1,286046997.3,N
1552071935.9,286046995.3,Y
1552071955.7,286046999.5,P
1552071975.6,286046999.3,N
1552071995.4,286046996.5,P
1552072015.2,286046999.5,N
1552072035.1,286046999.1,N
1552072036.0,286046999.1,N
1552072055.8,286046998.4,N
1552072075.6,286046999.1,N
1552072095.5,286046998.9,N
1552072115.3,286046999.6,N
1552072135.2,286047000.8,N
1552072155.9,286047001.1,N
1552072175.7,286047000.7,N
1552072195.6,286046998.4,N
1552072215.4,286047002.2,N
1552072235.3,286046999.9,N
1552072255.1,286047002.1,N
1552072256.0,286047002.1,N
1552072275.8,286047002.4,N
1552072295.7,286047002.5,N
1552072315.5,286047000.7,N
1552072335.3,286046998.2,N
1552072355.2,286047001.1,N
1552072375.0,286046998.2,N
1552072375.9,286046998.2,N
1552072395.8,286046999.0,N
1552072415.6,286047001.1,N
1552072435.4,286047000.0,N
1552072455.3,286047000.9,N
1552072475.1,286047002.3,N
1552072495.8,286047002.6,N
1552072515.7,286047000.1,N
1552072535.5,286046999.9,N
1552072555.4,286047000.6,N
1552072575.2,286047001.6,N
1552072595.0,286047004.3,N
1552072595.9,286047004.3,N
1552072615.8,286047004.4,N
1552072635.6,286047003.9,N
1552072655.5,286047004.4,N
1552072675.3,286047003.5,N
1552072695.1,286047005.3,N
1552072715.9,286047005.3,N
1552072735.7,286047007.4,Y
1552072755.5,286047005.6,P
1552072775.4,286047007.3,P
1552072795.2,286047007.1,N
1552072815.1,286047008.2,Y
1552072816.0,286047008.2,P
1552072835.8,286047001.4,N
1552072855.6,286047001.8,N
1552072875.5,286046999.8,N
1552072895.3,286047002.1,N
1552072915.2,286047004.1,N
1552072935.9,286047001.7,N
1552072955.7,286047001.4,N
1552072975.6,286047002.2,N
1552072995.4,286047001.8,N
1552073015.2,286047002.1,N
1552073035.1,286047002.4,N
1552073036.0,286047002.4,N
1552073055.8,286047004.0,N
1552073075.7,286047001.4,N
1552073095.5,286047004.1,N
1552073115.3,286047003.2,N
1552073135.2,286047007.5,Y
1552073155.0,286047004.3,P
1552073155.9,286047004.3,P
1552073175.8,286047002.6,P
1552073195.6,286046999.7,N
1552073215.4,286047002.5,N
1552073235.3,286047000.0,N
1552073255.1,286047001.0,N
1552073275.8,286047000.8,N
1552073295.7,286047001.7,N
1552073315.5,286047001.6,N
1552073335.4,286047002.0,N
1552073355.2,286047002.6,N
1552073375.0,286047002.2,N
1552073375.9,286047002.2,N
1552073395.8,286047002.5,N
1552073415.6,286047001.4,N
1552073435.4,286047004.0,Y
1552073455.3,286047002.6,P
1552073475.1,286047001.7,P
1552073495.9,286047002.2,P
1552073515.7,286047002.6,Y
1552073535.5,286046998.5,P
1552073555.4,286047000.4,N
1552073575.2,286046998.8,N
1552073595.0,286047000.9,N
1552073596.0,286047000.9,N
1552073615.8,286046999.7,N
1552073635.6,286047000.0,N
1552073655.5,286047002.5,N
1552073675.3,286047001.8,N
1552073695.1,286047002.1,N
1552073715.9,286047001.5,N
1552073735.7,286047003.9,Y
1552073755.6,286047002.5,P
1552073775.4,286047001.6,N
1552073795.2,286047002.3,P
1552073815.1,286047001.8,N
1552073816.0,286047001.8,N
1552073835.8,286047000.1,N
1552073855.7,286047002.4,Y
1552073875.5,286047000.8,P
1552073895.3,286046998.2,P
1552073915.2,286047000.9,N
1552073935.9,286046999.8,N
1552073955.7,286047001.1,N
1552073975.6,286047000.5,N
1552073995.4,286047000.2,N
1552074015.3,286047001.0,N
1552074035.1,286047000.3,N
1552074036.0,286047000.3,N
1552074055.8,286047000.4,N
1552074075.7,286047000.3,N
1552074095.5,286047002.4,Y
1552074115.3,286047000.0,P
1552074135.2,286047000.3,N
1552074155.0,286046999.8,N
1552074155.9,286046999.8,N
1552074175.8,286047002.4,Y
1552074195.6,286047000.1,P
1552074215.4,286046999.7,P
1552074235.3,286047002.6,P
1552074255.1,286047002.3,N
1552074275.9,286047000.1,N
1552074295.7,286047004.4,Y
1552074315.5,286047002.5,P
1552074335.4,286047002.1,N
1552074355.2,286047003.7,P
1552074375.0,286047003.0,N
1552074376.0,286047003.0,Y
1552074395.8,286046999.7,P
1552074415.6,286047000.2,N
1552074435.5,286047002.8,N
1552074455.3,286047000.1,N
1552074475.1,286046999.7,N
1552074495.9,286047002.8,N
1552074515.7,286047001.6,N
1552074535.6,286047002.3,N
1552074555.4,286047000.2,N
1552074575.2,286047002.4,N
1552074595.1,286047001.8,N
1552074596.0,286047001.8,N
1552074615.8,286047004.3,Y
1552074635.7,286047001.0,P
1552074655.5,286047001.2,P
1552074675.3,286047000.7,P
1552074695.2,286047000.0,N
1552074715.0,286047000.9,N
1552074715.9,286047000.9,N
1552074735.7,286046998.4,Y
1552074755.6,286046996.6,P
1552074775.4,286047001.2,N
1552074795.3,286046998.8,N
1552074815.1,286047001.1,N
1552074816.0,286047001.1,N
1552074835.8,286047000.6,N
1552074855.7,286047000.8,N
1552074875.5,286047001.2,N
1552074895.3,286047000.6,N
1552074915.2,286047000.3,N
1552074935.0,286047001.0,N
1552074935.9,286047001.0,N
1552074955.8,286047000.6,N
1552074975.6,286047000.7,N
1552074995.4,286047000.9,N
1552075015.3,286046998.1,N
1552075035.1,286047000.4,N
1552075055.8,286046999.8,N
1552075075.7,286047002.7,N
1552075095.5,286047000.0,N
1552075115.4,286047000.3,N
1552075135.2,286047001.2,N
1552075155.0,286047001.0,N
1552075155.9,286047001.0,N
1552075175.8,286047000.0,N
1552075195.6,286047002.7,N
